Powrót do katalogu

COSMOS 1823 DEB

AktywnyLEO
NORAD 26982·DEBRIS·🇷🇺 Russia

Wystrzelony Feb 20, 1987 z Plesetsk Cosmodrome

Loading…

Następne Przeloty (najbliższe 24 godziny)

TLE

ŚwieżeSource: Space-Track

Epoka: Sep 13, 2026, 11:24 UTC

1 26982U 87020DU  26256.47546344  .00000048  00000-0  47490-3 0  9991
2 26982  73.5980 266.7950 0026147 106.0675  48.1635 12.42699193204011

Śledź COSMOS 1823 DEB w czasie rzeczywistym z AllMySat

Download on the App Store